Fort Leonard Wood, MO

9:12 AM CDT on April 29, 2017 (GMT -0500)
Waynesville Regional At Forney Field

Weather History for KTBN - April, 2012

Change the Weather History Date:

Wednesday, April 4, 2012

  Actual Average Record
Temperature  
Mean Temperature 64 °F -  
Max Temperature 74 °F 62 °F 78 °F (2003)
Min Temperature 55 °F 45 °F 27 °F (2015)
Degree Days  
Heating Degree Days 1    
Growing Degree Days 14 (Base 50)    
Moisture  
Dew Point 59 °F    
Average Humidity 97    
Maximum Humidity 100    
Minimum Humidity 73    
Precipitation  
Precipitation 0.56 in - - ()
Sea Level Pressure  
Sea Level Pressure 29.74 in    
Wind  
Wind Speed 3 mph (NE)    
Max Wind Speed 14 mph    
Max Gust Speed 17 mph    
Visibility 4 miles    
Events Fog , Rain , Thunderstorm    
Averages and records for this station are not official NWS values.
T = Trace of Precipitation, MM = Missing Value Source: NWS Daily Summary

Daily Weather History Graph

Daily Weather History Graph

Search for Another Location

Airport or City:

Trip Planner

Search our weather history database for the weather conditions in past years. The results will help you decide how hot, cold, wet, or windy it might be!

Date:

Astronomy

Apr. 04, 2012 Rise Set
Actual Time 6:48 AM CDT 7:34 PM CDT
Civil Twilight 6:22 AM CDT 8:01 PM CDT
Nautical Twilight 5:50 AM CDT 8:32 PM CDT
Astronomical Twilight 5:18 AM CDT 9:05 PM CDT
Moon 5:30 PM CDT (4/4) 5:08 AM CDT (4/4)
Length of Visible Light 13h 39m
Length of Day
12h 46m
Waxing Gibbous, 94% of the Moon is Illuminated
Apr 4
Waxing Gibbous
Apr 6
Full
Apr 13
Last Quarter
Apr 21
New
Apr 29
First Quarter

Hourly Weather History & Observations

Time (CDT) Temp. Dew Point Humidity Pressure Visibility Wind Dir Wind Speed Gust Speed Precip Events Conditions
12:55 AM 58.6 °F 58.6 °F 100% 29.79 in 10.0 mi Calm Calm - N/A   Clear
1:55 AM 59.5 °F 59.5 °F 100% 29.77 in 10.0 mi East 4.6 mph - N/A   Clear
2:55 AM 57.4 °F 57.4 °F 100% 29.76 in 10.0 mi Calm Calm - N/A   Clear
3:55 AM 56.3 °F 56.3 °F 100% 29.76 in 10.0 mi North 4.6 mph - N/A   Clear
4:55 AM 55.4 °F 55.4 °F 100% 29.75 in 8.0 mi Calm Calm - N/A   Clear
5:05 AM 55.4 °F 55.4 °F 100% 29.74 in 2.5 mi Calm Calm - N/A   Clear
5:06 AM 55.4 °F 55.4 °F 100% 29.74 in 1.8 mi Calm Calm - N/A   Clear
5:07 AM 55.4 °F 55.4 °F 100% 29.74 in 1.2 mi Calm Calm - N/A   Clear
5:08 AM 55.4 °F 55.4 °F 100% 29.74 in 1.0 mi Calm Calm - N/A   Clear
5:09 AM 55.4 °F 55.4 °F 100% 29.74 in 0.8 mi Calm Calm - N/A   Clear
5:13 AM 55.4 °F 55.4 °F 100% 29.74 in 0.8 mi Calm Calm - N/A   Clear
5:15 AM 55.4 °F 55.4 °F 100% 29.74 in 0.8 mi Calm Calm - N/A   Clear
5:17 AM 57.2 °F 57.2 °F 100% 29.73 in 1.0 mi Calm Calm - N/A   Clear
5:18 AM 57.2 °F 57.2 °F 100% 29.73 in 1.2 mi Calm Calm - N/A   Clear
5:19 AM 57.2 °F 57.2 °F 100% 29.73 in 1.5 mi Calm Calm - N/A   Clear
5:20 AM 57.2 °F 57.2 °F 100% 29.73 in 1.8 mi Calm Calm - N/A   Clear
5:21 AM 57.2 °F 57.2 °F 100% 29.73 in 2.0 mi Calm Calm - N/A   Clear
5:23 AM 57.2 °F 57.2 °F 100% 29.73 in 3.0 mi Calm Calm - N/A   Clear
5:26 AM 57.2 °F 57.2 °F 100% 29.73 in 2.5 mi Calm Calm - N/A   Clear
5:29 AM 55.4 °F 55.4 °F 100% 29.74 in 1.8 mi Calm Calm - N/A   Clear
5:30 AM 55.4 °F 55.4 °F 100% 29.74 in 1.5 mi Calm Calm - N/A   Clear
5:32 AM 55.4 °F 55.4 °F 100% 29.74 in 1.2 mi Calm Calm - N/A   Clear
5:34 AM 55.4 °F 55.4 °F 100% 29.74 in 1.5 mi Calm Calm - N/A   Clear
5:36 AM 55.4 °F 55.4 °F 100% 29.74 in 1.8 mi Calm Calm - N/A   Clear
5:37 AM 55.4 °F 55.4 °F 100% 29.74 in 2.0 mi Calm Calm - N/A   Clear
5:40 AM 55.4 °F 55.4 °F 100% 29.74 in 3.0 mi Calm Calm - N/A   Clear
5:55 AM 55.8 °F 55.8 °F 100% 29.73 in 10.0 mi North 4.6 mph - N/A   Clear
6:54 AM 55.4 °F 55.4 °F 100% 29.74 in 2.5 mi NNE 4.6 mph - N/A   Clear
6:55 AM 55.6 °F 55.6 °F 100% 29.74 in 2.0 mi NNE 4.6 mph - N/A   Clear
6:56 AM 55.4 °F 55.4 °F 100% 29.74 in 1.5 mi NNE 4.6 mph - N/A   Clear
6:57 AM 55.4 °F 55.4 °F 100% 29.74 in 1.0 mi NNE 4.6 mph - N/A   Mist
6:58 AM 55.4 °F 55.4 °F 100% 29.74 in 0.8 mi NNE 4.6 mph - N/A   Mist
6:59 AM 55.4 °F 55.4 °F 100% 29.74 in 0.5 mi NNE 3.5 mph - N/A Fog Fog
7:01 AM 55.4 °F 55.4 °F 100% 29.74 in 0.2 mi NE 3.5 mph - N/A Fog Fog
7:03 AM 55.4 °F 55.4 °F 100% 29.74 in 0.2 mi NNE 3.5 mph - N/A Fog Fog
7:04 AM 55.4 °F 55.4 °F 100% 29.74 in 0.2 mi NNE 3.5 mph - N/A Fog Fog
7:05 AM 55.4 °F 55.4 °F 100% 29.74 in 0.2 mi NNE 3.5 mph - N/A Fog Fog
7:06 AM 55.4 °F 55.4 °F 100% 29.74 in 0.2 mi NNE 4.6 mph - N/A Fog Fog
7:08 AM 55.4 °F 55.4 °F 100% 29.74 in 0.2 mi NE 4.6 mph - N/A Fog Fog
7:55 AM 56.7 °F 56.7 °F 100% 29.77 in 0.2 mi Calm Calm - N/A Fog Fog
8:31 AM 59.0 °F 59.0 °F 100% 29.77 in 0.2 mi Calm Calm - N/A Fog Fog
8:42 AM 59.0 °F 59.0 °F 100% 29.77 in 0.2 mi Calm Calm - N/A Fog Fog
8:44 AM 59.0 °F 59.0 °F 100% 29.77 in 0.2 mi NE 3.5 mph - N/A Fog Fog
8:47 AM 59.0 °F 59.0 °F 100% 29.77 in 0.2 mi ENE 3.5 mph - N/A Fog Fog
8:48 AM 59.0 °F 59.0 °F 100% 29.77 in 0.2 mi ENE 3.5 mph - N/A Fog Fog
8:49 AM 59.0 °F 59.0 °F 100% 29.77 in 0.2 mi ENE 3.5 mph - N/A Fog Fog
8:52 AM 59.0 °F 59.0 °F 100% 29.77 in 0.5 mi NE 3.5 mph - N/A Fog Fog
8:55 AM 59.7 °F 59.7 °F 100% 29.77 in 0.5 mi NE 3.5 mph - N/A Fog Fog
9:04 AM 59.0 °F 59.0 °F 100% 29.78 in 0.5 mi Calm Calm - N/A Fog Fog
9:05 AM 60.8 °F 60.8 °F 100% 29.78 in 0.8 mi Calm Calm - N/A   Mist
9:08 AM 60.8 °F 60.8 °F 100% 29.78 in 1.0 mi Variable 3.5 mph - N/A   Mist
9:09 AM 60.8 °F 60.8 °F 100% 29.78 in 1.2 mi East 3.5 mph - N/A   Overcast
9:11 AM 60.8 °F 60.8 °F 100% 29.78 in 1.8 mi ENE 4.6 mph - N/A   Overcast
9:12 AM 60.8 °F 60.8 °F 100% 29.78 in 2.0 mi ENE 3.5 mph - N/A   Overcast
9:14 AM 60.8 °F 60.8 °F 100% 29.78 in 3.0 mi ENE 3.5 mph - N/A   Overcast
9:17 AM 60.8 °F 60.8 °F 100% 29.78 in 4.0 mi ENE 3.5 mph - N/A   Overcast
9:35 AM 60.8 °F 59.0 °F 94% 29.78 in 8.0 mi Variable 4.6 mph - N/A   Overcast
9:51 AM 62.6 °F 60.8 °F 94% 29.78 in 10.0 mi East 5.8 mph - N/A   Overcast
9:55 AM 61.5 °F 60.8 °F 97% 29.78 in 10.0 mi ENE 4.6 mph - N/A   Overcast
10:02 AM 60.8 °F 60.8 °F 100% 29.78 in 10.0 mi ENE 4.6 mph - N/A   Overcast
10:12 AM 62.6 °F 60.8 °F 94% 29.78 in 10.0 mi Variable 5.8 mph - N/A   Overcast
10:41 AM 62.6 °F 62.6 °F 100% 29.80 in 10.0 mi Calm Calm - N/A   Overcast
10:55 AM 63.0 °F 63.0 °F 100% 29.79 in 10.0 mi NE 4.6 mph - N/A   Mostly Cloudy
11:19 AM 64.4 °F 64.4 °F 100% 29.78 in 10.0 mi NE 8.1 mph - N/A   Overcast
11:29 AM 64.4 °F 64.4 °F 100% 29.77 in 10.0 mi NE 9.2 mph - N/A   Overcast
11:55 AM 66.9 °F 63.1 °F 88% 29.78 in 10.0 mi North 6.9 mph - N/A   Overcast
12:55 PM 70.5 °F 63.0 °F 77% 29.72 in 10.0 mi NE 12.7 mph 17.3 mph N/A   Mostly Cloudy
1:55 PM 71.6 °F 63.0 °F 74% 29.72 in 10.0 mi Variable 5.8 mph - N/A   Overcast
2:36 PM 73.4 °F 64.4 °F 73% 29.69 in 10.0 mi NNE 8.1 mph 17.3 mph N/A   Overcast
2:41 PM 73.4 °F 64.4 °F 73% 29.69 in 10.0 mi NE 10.4 mph 17.3 mph N/A   Overcast
2:55 PM 72.9 °F 63.7 °F 73% 29.70 in 10.0 mi NNE 9.2 mph - N/A   Mostly Cloudy
3:06 PM 71.6 °F 62.6 °F 73% 29.69 in 10.0 mi NNE 8.1 mph - N/A   Mostly Cloudy
3:14 PM 71.6 °F 62.6 °F 73% 29.71 in 10.0 mi NNE 9.2 mph - N/A Thunderstorm Thunderstorm
3:38 PM 68.0 °F 62.6 °F 83% 29.70 in 10.0 mi NW 13.8 mph - N/A Thunderstorm Thunderstorm
3:46 PM 68.0 °F 62.6 °F 83% 29.71 in 5.0 mi West 13.8 mph - N/A Rain , Thunderstorm Light Thunderstorms and Rain
3:52 PM 66.2 °F 64.4 °F 94% 29.72 in 1.5 mi West 9.2 mph - N/A Rain , Thunderstorm Heavy Thunderstorms and Rain
3:55 PM 65.1 °F 64.0 °F 96% 29.72 in 1.2 mi WNW 8.1 mph - 0.18 in Rain , Thunderstorm Heavy Thunderstorms and Rain
4:05 PM 64.4 °F 64.4 °F 100% 29.71 in 2.0 mi North 9.2 mph - N/A Rain , Thunderstorm Heavy Thunderstorms and Rain
4:16 PM 64.4 °F 64.4 °F 100% 29.71 in 3.0 mi NNE 5.8 mph - N/A Rain , Thunderstorm Thunderstorms and Rain
4:27 PM 64.4 °F 64.4 °F 100% 29.70 in 3.0 mi NE 10.4 mph - N/A Rain , Thunderstorm Light Thunderstorms and Rain
4:47 PM 62.6 °F 60.8 °F 94% 29.69 in 4.0 mi NE 6.9 mph - N/A Rain Light Rain
4:55 PM 61.9 °F 61.3 °F 98% 29.68 in 9.0 mi ENE 5.8 mph - 0.38 in Rain Light Rain
5:05 PM 62.6 °F 60.8 °F 94% 29.69 in 9.0 mi ENE 4.6 mph - N/A   Mostly Cloudy
5:55 PM 62.4 °F 61.2 °F 96% 29.68 in 10.0 mi ENE 6.9 mph - 0.00 in   Scattered Clouds
6:55 PM 62.2 °F 60.4 °F 94% 29.70 in 10.0 mi ESE 4.6 mph - N/A   Clear
7:55 PM 59.7 °F 59.7 °F 100% 29.71 in 10.0 mi Calm Calm - N/A   Clear
8:55 PM 58.8 °F 58.8 °F 100% 29.70 in 10.0 mi East 4.6 mph - N/A   Clear
9:55 PM 58.8 °F 58.8 °F 100% 29.71 in 10.0 mi East 3.5 mph - N/A   Scattered Clouds
10:55 PM 58.1 °F 58.1 °F 100% 29.71 in 10.0 mi ESE 4.6 mph - N/A   Scattered Clouds
11:05 PM 57.2 °F 57.2 °F 100% 29.73 in 7.0 mi SW 6.9 mph - N/A   Mostly Cloudy
11:55 PM 57.4 °F 57.4 °F 100% 29.71 in 6.0 mi Calm Calm - N/A   Mostly Cloudy